Regional Weather Roundup
Issued by NWS

Home | Current Version | Previous Version | Text Only | Print | Product List | Glossary On
Versions: 1 2 3 4 5 6 7 8 9 10 11 12 13 14 15 16 17 18 19 20 21 22 23 24 25 26 27 28 29 30 31 32 33 34 35 36 37 38 39 40 41 42 43 44 45 46 47 48 49 50
000
ASUS45 KTFX 271319
RWRMT
MONTANA HOURLY WEATHER ROUNDUP
NATIONAL WEATHER SERVICE GREAT FALLS MT
719 AM MDT WED AUG 27 2014

NOTE: "FAIR" INDICATES FEW OR NO CLOUDS BELOW 12000 FEET WITH NO
SIGNIFICANT WEATHER AND/OR OBSTRUCTIONS TO VISIBILITY.

* THESE STATIONS ARE NOT UNDER NWS QUALITY CONTROL. THEY DO NOT
   REPORT WEATHER SUCH AS PRECIPITATION OR FOG.

MTZ001>007-043-271400-
WEST OF THE DIVIDE
CITY           SKY/WX    TMP DP  RH WIND       PRES   REMARKS
KALISPELL      CLEAR     45  43  93 CALM      30.11R
MISSOULA       CLEAR     46  45  96 CALM      30.17R
BUTTE          CLEAR     43  39  86 CALM      30.25R
MULLAN PASS    CLEAR     57  37  47 W3        30.24R
* LINCOLN      N/A       36  35  96 N/A        N/A
* LOOKOUT PASS N/A       51  42  71 S1         N/A
* POLSON       N/A       53  43  69 N/A        N/A
* RONAN APT    CLEAR     45  41  86 N/A        N/A
* SEELEY LAKE  N/A       37  36  96 E1         N/A
* THOMP F APT  CLEAR     45  36  71 NE5        N/A
$$

MTZ008-052>055-271400-
SOUTHWEST MONTANA
CITY           SKY/WX    TMP DP  RH WIND       PRES   REMARKS
BOZEMAN        CLEAR     48  45  89 S6        30.20R
DILLON         CLEAR     48  43  83 S5        30.22R
W YELLOWSTONE  CLEAR     32  32 100 CALM      30.33R
* THREE FORKS  CLEAR     45  27  49 N/A        N/A
* BOULDER HILL N/A       49  38  66 S11        N/A
* MONIDA PASS  N/A       41  38  89 W4         N/A
* RAYNOLDS PAS N/A       40  37  89 N/A        N/A
* WHITEHALL    N/A       46  44  93 N5         N/A
* WISE RIVER   N/A       39  37  93 SW3        N/A
$$

MTZ009>010-012-014-046-048-049-054-271400-
EAST SLOPES AND CENTRAL MONTANA
CITY           SKY/WX    TMP DP  RH WIND       PRES   REMARKS
CUT BANK       CLEAR     50  45  83 N3        30.04S
GREAT FALLS    CLEAR     52  45  77 S9        30.07R
HELENA         CLEAR     48  45  89 CALM      30.15R
MALMSTROM AFB  CLEAR     54  45  72 SW10      30.08S
* CONRAD       CLEAR     48  46  93 N/A        N/A
* DEARBORN     N/A       50  45  83 S5         N/A
* EAST GLACIER N/A       54  43  67 NW6        N/A
* MONARCH      N/A       48  38  68 S11        N/A
* PENDROY      N/A       56  41  57 W7         N/A
* ROGERS PASS  N/A       54  38  55 E8G15      N/A
* SAINT MARY   N/A       61  42  50 S8G17      N/A
* SWEET GRASS  N/A       51  49  93 S9         N/A
* WHITE SULPH  N/A       45  41  86 NE6G11     N/A
$$

MTZ011-013-016-021-035-040-045-047-050-051-271400-
NORTH CENTRAL MONTANA
CITY           SKY/WX    TMP DP  RH WIND       PRES   REMARKS
HAVRE          CLEAR     52  46  80 W5        30.01S
LEWISTOWN      CLEAR     52  45  77 S5        30.11S
* CHINOOK      CLEAR     52  48  86 CALM      30.02F
* FORT BENTON  CLEAR     54  45  72 CALM      30.06R
* CHESTER      N/A       45  42  89 N/A        N/A
* DENTON       N/A       47  45  93 S7         N/A
* GEYSER       N/A       47  42  83 SE3        N/A
* JUDITH GAP   N/A       50  46  86 S4         N/A
* LOMA         N/A       51  47  86 N/A        N/A
$$

MTZ017>020-022>027-061-062-271400-
NORTHEAST MONTANA
CITY           SKY/WX    TMP DP  RH WIND       PRES   REMARKS
GLASGOW        CLEAR     54  50  86 E13       30.04S
GLENDIVE       CLEAR     54  52  93 CALM      30.12S VSB 1 3/4
JORDAN         CLEAR     52  48  86 CALM      30.06S
SIDNEY         CLEAR     52  52 100 CALM      30.12S
WOLF POINT     CLEAR     50  46  86 NE6       30.08S
* BEAVER HILL  N/A       53  51  93 SE7        N/A
* CIRCLE       N/A       57  52  83 N/A        N/A
* LINDSAY DVD  N/A       51  51 100 SE3        N/A
* NAVAJO       N/A       50  49  96 S6         N/A
* SACO         N/A       52  50  93 E6         N/A
$$

MTZ028>042-056>058-271400-
SOUTHCENTRAL AND SOUTHEAST MONTANA
CITY           SKY/WX    TMP DP  RH WIND       PRES   REMARKS
BAKER          CLEAR     50  48  93 E6        30.14S
BILLINGS       FAIR      57  48  72 SW13      30.11R
LIVINGSTON     CLEAR     46  41  83 W3        30.18R
MILES CITY     CLEAR     54  52  93 CALM      30.09S
* LAUREL APT   CLEAR     52  46  80 N/A        N/A
* ROUNDUP APT  CLEAR     52  46  80 SW13       N/A
* ALZADA       N/A       52  51  96 E4         N/A
* HYSHAM       N/A       61  43  52 W3         N/A
* LAME DEER    N/A       60  49  67 S6         N/A
* REED POINT   N/A       49  47  93 NW1        N/A
* ROSCOE HILL  N/A       58  31  36 SW6G11     N/A
$$

REGIONAL REPORTS...DAKOTAS
CITY           SKY/WX    TMP DP  RH WIND       PRES   REMARKS
WILLISTON      CLEAR     52  52 100 CALM      30.11S
DICKINSON      PTCLDY    52  50  93 S8        30.13S
BEACH          N/A       52  52 100 S8        30.14R
CROSBY         CLEAR     54  54 100 S13       30.10S
TIOGA          FOG       48  48 100 E3        30.16S VSB M1/4
WATFORD CITY   CLEAR     48  48 100 E6        30.11R
BISMARCK       FOG       50  50 100 NE5       30.17S VSB M1/4
GRAND FORKS    FAIR      52  50  93 S5        30.18R
FARGO          FOG       55  55 100 CALM      30.19R
BUFFALO SD     CLEAR     52  50  93 CALM      30.10R
RAPID CITY     MOCLDY    55  54  96 E5        30.16R
$$

REGIONAL REPORTS...WYOMING/IDAHO/WASHINGTON
CITY           SKY/WX    TMP DP  RH WIND       PRES   REMARKS
GILLETTE       PTCLDY    54  52  93 E3        30.16R
SHERIDAN       PTCLDY    48  45  89 CALM      30.14S
CODY           PTCLDY    55  46  72 W7        30.19S
YELLOWSTONE LA CLEAR     34  32  92 CALM      30.39S
SALMON         CLEAR     46  45  96 CALM      30.24R
MULLAN PASS    CLEAR     57  37  47 W3        30.24S
SAND POINT     CLEAR     46  46 100 CALM      30.07S
SPOKANE        CLEAR     61  46  58 SE6       30.06R
$$

REGIONAL REPORTS...ALBERTA
CITY           SKY/WX    TMP DP  RH WIND       PRES   REMARKS
CALGARY        MOCLDY    64  46  52 W12       29.97R
LETHBRIDGE     N/A       55  48  77 SW12      29.98R
MEDICINE HAT   N/A       57  48  72 SW12      29.93R
EDMONTON       MOCLDY    54  50  86 CALM      29.89R
WATERTON GATE  N/A       63  45  52 SW18G26    N/A
CARDSTON       N/A       54  46  74 S5         N/A
MILK RIVER     N/A       48  45  89 NE2        N/A
$$

REGIONAL REPORTS...SASKATCHEWAN
CITY           SKY/WX    TMP DP  RH WIND       PRES   REMARKS
SWIFT CURRENT  CLEAR     57  46  67 S16       29.96F
MOOSE JAW      N/A       55  50  83 E2        30.00S
REGINA         N/A       50  46  86 SE10      30.03S
VAL MARIE      N/A       46  45  96 E2         N/A
ASSINIBOIA     N/A       52  46  80 SE3        N/A
CORONACH       N/A       50  46  86 SE5        N/A

$$




USA.gov is the U.S. government's official web portal to all federal, state and local government web resources and services.